Probability
0 0 0 0 0 0 0 0 0 0 0 0 0 1 3 4 5 6 9 12 10 7 5 4 4 6 9 11 13 15 16 18 21 19 15 12 9 6 3 2 1 0 0 0
0 0 0 0 0 0 0 0 0 0 0 0 0 1 2 3 4 6 10 11 9 6 4 3 4 5 6 8 10 13 15 17 17 16 15 12 10 6 2 1 0 0 0 0
0 0 0 0 0 0 0 0 0 0 0 0 0 1 1 2 3 6 10 9 6 3 2 2 3 4 5 6 8 10 13 14 13 13 12 11 9 5 1 0 0 0 0 0
0 0 0 0 0 0 0 0 0 0 0 0 0 0 0 1 2 5 8 6 4 2 2 2 2 4 5 6 7 9 10 10 9 9 7 6 6 4 2 1 0 0 0 0
0 0 0 0 0 0 0 0 0 0 0 0 0 0 0 0 1 3 6 5 3 3 2 1 1 3 4 5 6 7 7 6 6 5 4 3 4 4 3 1 0 0 0 0
0 0 0 0 0 0 0 0 0 0 0 0 0 0 0 0 0 2 5 6 5 4 3 1 1 1 2 3 4 4 5 5 4 3 2 2 3 3 2 1 0 0 0 0
0 0 0 0 0 0 0 0 0 0 0 0 0 0 0 0 0 2 6 8 7 5 4 2 1 1 2 3 2 2 3 4 2 1 1 1 1 1 1 0 0 0 0 0
0 0 0 0 0 0 0 0 0 0 0 0 0 0 0 0 0 2 5 7 7 6 4 2 1 0 1 2 2 2 2 2 1 0 0 1 1 1 1 0 0 0 0 0
0 0 0 0 0 0 0 0 0 0 0 0 0 0 0 0 0 1 4 5 5 5 3 1 0 0 1 2 3 2 2 2 2 1 1 1 2 2 2 1 0 0 0 0
0 0 0 0 0 0 0 0 0 0 0 0 0 0 0 0 0 1 3 4 4 4 2 1 0 0 1 2 3 3 3 3 2 2 1 2 3 3 3 2 1 0 0 0
0 0 0 0 0 0 0 0 0 0 0 0 0 0 0 0 0 1 2 3 3 2 1 0 0 0 1 2 1 2 3 3 3 4 4 3 3 3 3 2 1 0 0 0
0 0 0 0 0 0 0 0 0 0 0 0 0 0 0 0 0 1 2 2 2 1 1 0 1 1 2 1 1 1 2 4 5 6 6 5 3 3 3 2 1 0 0 0
0 0 0 0 0 0 0 0 0 0 0 0 0 0 0 0 0 0 1 1 1 1 3 3 4 4 4 2 1 1 2 4 5 6 6 5 4 3 3 3 1 0 0 0
0 0 0 0 0 0 0 0 0 0 0 0 0 0 0 0 0 0 0 0 0 2 6 8 9 8 7 4 2 1 2 5 8 8 6 5 5 4 4 3 2 1 0 0
1 1 0 0 0 0 0 0 0 0 0 0 0 0 0 0 0 0 0 1 1 3 7 11 12 11 10 8 7 6 8 12 15 15 11 7 6 6 5 5 4 2 0 0
3 2 1 0 0 0 0 0 0 0 0 0 0 0 1 1 0 0 1 2 3 4 6 10 13 14 16 17 17 19 25 28 28 23 18 13 11 9 8 8 7 4 2 1
4 3 1 0 0 0 0 0 0 0 0 0 1 1 2 1 0 0 1 2 4 4 5 8 12 15 21 24 26 34 43 44 39 32 25 20 18 13 11 10 9 8 6 5
3 4 2 0 0 0 0 0 0 0 0 1 1 2 2 1 0 0 0 1 3 5 7 9 12 17 23 26 31 41 50 50 44 38 30 26 23 19 15 12 11 11 11 10
4 4 2 0 0 0 0 0 0 0 0 1 1 1 1 0 0 0 1 2 4 8 12 14 16 21 27 33 39 46 50 48 44 40 34 29 26 23 19 15 13 14 15 14
5 4 2 0 0 0 0 0 0 0 0 1 2 1 1 2 2 3 4 6 8 12 16 19 21 27 37 46 50 51 49 46 44 40 34 29 27 25 22 19 18 17 17 16
3 3 1 0 0 0 0 0 0 1 1 1 2 3 4 5 6 7 8 9 11 14 17 21 24 30 40 49 51 49 45 43 41 37 29 25 23 21 19 20 20 16 14 14
1 2 1 0 0 1 0 0 1 3 3 3 4 5 5 7 8 8 9 10 10 11 14 17 23 29 35 39 41 43 40 35 32 27 22 18 16 12 12 16 17 13 11 11
1 2 2 2 3 3 2 1 2 3 4 5 6 5 4 5 6 7 8 10 11 11 12 14 19 23 24 25 29 36 35 28 23 20 17 14 10 5 5 10 12 10 8 7
2 2 2 3 5 4 2 1 1 2 3 5 5 3 3 4 5 7 8 11 14 16 14 15 17 19 18 16 20 27 27 23 20 17 15 13 9 5 5 8 8 7 6 5
1 1 1 2 3 2 1 0 0 1 2 3 3 1 2 4 6 7 8 10 14 16 16 15 16 15 12 10 11 15 17 15 13 12 11 10 8 6 6 6 5 4 4 3
0 1 1 1 1 1 1 1 0 1 2 2 1 0 1 4 6 7 7 8 10 12 13 13 12 10 8 6 5 6 8 9 7 7 7 7 6 6 5 4 4 3 2 2
Wind_Speed
7 9 9 5 5 8 8 9 8 4 1 5 6 4 4 6 6 6 7 8 8 8 9 9 9 10 10 9 9 9 9 9 7 6 6 6 6 5 5 5 6 5 5 5
9 11 7 5 6 8 9 9 7 1 1 5 5 5 4 6 7 7 8 9 9 10 10 10 10 9 10 9 9 9 9 9 8 6 5 4 5 5 5 4 5 5 5 4
13 4 2 6 7 8 9 8 7 5 2 5 6 6 7 7 7 7 8 8 9 10 11 11 11 10 10 10 10 9 9 9 8 8 6 6 5 5 5 5 5 4 4 4
11 7 6 8 7 8 7 3 6 5 7 3 4 5 6 8 9 10 10 10 10 11 11 12 12 12 12 11 10 10 10 9 9 8 7 8 6 5 5 5 5 5 4 4
8 6 7 9 5 6 3 1 4 6 7 7 4 7 3 8 9 11 12 12 11 11 12 13 13 13 13 13 12 11 10 9 9 8 7 7 6 5 5 5 6 5 5 4
12 6 7 6 2 3 3 4 5 7 8 6 1 6 1 5 8 10 13 13 13 13 13 12 12 13 12 13 12 11 11 10 9 8 8 7 6 6 6 6 6 5 4 4
13 12 8 6 7 7 8 8 6 6 5 2 2 5 3 2 4 8 13 15 15 14 14 14 14 14 13 14 13 13 12 11 10 9 8 7 7 8 7 7 6 5 4 4
11 10 10 9 9 6 8 9 7 7 6 4 3 4 2 3 4 7 11 14 15 15 15 15 15 15 15 15 14 14 13 12 11 10 9 8 8 7 6 6 5 5 4 4
9 8 5 6 6 7 6 7 6 9 8 8 3 1 3 5 7 9 12 14 15 15 15 16 16 16 16 16 16 15 14 12 12 11 10 9 8 6 6 6 6 5 4 4
10 9 6 6 6 6 8 5 5 7 7 7 4 3 1 5 9 12 14 15 15 15 16 16 16 16 15 15 15 15 14 14 13 12 10 9 9 8 7 7 6 5 5 4
12 10 8 8 9 9 8 8 8 7 7 9 6 2 4 1 8 12 14 15 15 16 16 16 15 16 15 15 15 15 14 14 13 12 11 10 10 10 9 8 8 7 6 6
10 9 10 9 4 5 9 10 9 9 7 7 8 3 6 1 5 10 12 14 15 15 15 16 16 16 15 15 15 15 14 14 13 12 12 11 10 10 10 9 8 8 7 7
6 7 10 9 8 8 9 10 10 9 8 8 9 2 7 3 4 8 11 13 14 14 15 15 16 16 16 16 15 15 15 14 14 13 13 12 11 11 10 9 9 8 8 7
5 8 11 11 6 4 8 10 10 11 10 10 10 8 2 3 5 7 10 12 14 15 15 16 15 15 15 15 15 15 15 14 14 13 13 13 12 11 11 10 9 9 8 8
6 9 11 11 9 8 9 10 11 13 14 13 10 9 6 4 3 5 9 11 14 15 16 16 16 15 15 15 15 15 15 14 14 14 14 13 12 11 10 10 10 9 9 9
5 8 9 11 9 9 11 11 11 13 13 13 13 11 6 3 1 4 7 10 13 15 16 16 17 16 16 16 15 15 15 15 15 14 14 13 12 12 11 11 10 10 10 9
6 6 8 10 8 10 13 11 11 11 11 11 12 8 3 2 2 3 5 8 11 13 14 15 15 15 14 15 15 15 15 14 14 14 13 13 12 12 12 11 11 11 10 10
6 7 7 8 7 12 5 1 6 9 9 8 8 6 3 2 0 1 3 6 8 10 11 12 12 13 12 12 13 13 13 14 14 14 13 13 13 12 11 11 11 11 10 9
6 6 6 7 10 11 6 1 3 6 7 3 5 4 2 1 3 3 1 2 5 6 7 8 9 10 10 11 12 12 13 13 13 13 13 12 12 12 11 11 11 10 9 9
6 7 7 7 9 9 2 3 1 5 5 2 2 3 2 4 5 3 4 1 2 3 4 5 6 6 7 8 10 11 12 12 13 12 11 10 10 10 11 11 10 9 8 9
7 7 9 10 10 6 4 2 3 6 2 5 3 2 1 2 3 4 4 3 3 3 4 5 5 5 5 7 9 9 9 10 10 10 10 9 9 9 9 8 8 7 8 8
6 6 7 6 8 4 5 0 2 4 4 3 4 3 4 4 4 4 5 5 5 5 6 6 6 6 5 6 8 7 7 6 6 7 7 8 8 8 7 8 8 8 8 8
4 3 2 3 1 4 3 3 3 3 2 2 3 4 4 5 5 6 7 7 7 7 7 6 7 7 6 5 6 6 6 6 6 7 7 7 7 7 7 7 8 7 7 8
1 1 3 3 0 2 2 2 2 1 1 2 3 4 5 6 7 7 7 7 8 7 7 7 7 7 6 5 4 4 4 5 6 6 5 5 6 6 6 5 6 6 7 7
2 2 3 3 1 1 3 4 4 4 5 5 6 6 6 7 8 8 8 8 8 7 7 7 6 6 6 6 5 4 4 4 4 4 3 4 4 4 4 5 5 6 6 5
2 3 4 3 4 3 3 4 4 5 7 7 8 9 8 8 9 9 9 8 8 8 7 7 7 7 6 6 5 4 4 3 3 3 2 2 2 2 3 4 5 6 7 6
Wind_Direction
204 234 236 249 270 297 299 292 297 323 7 273 267 252 196 183 190 186 178 173 170 168 160 157 156 157 155 154 155 160 156 153 157 155 158 154 147 147 144 141 137 149 147 145
218 232 248 272 265 267 270 277 287 263 214 271 272 255 201 190 196 193 183 177 173 168 164 159 158 160 160 161 164 161 158 157 163 150 148 143 135 145 136 129 134 150 150 158
237 250 240 254 254 264 269 279 297 301 261 229 265 228 184 183 186 184 182 180 176 174 170 165 166 169 164 164 170 165 157 158 160 154 151 142 141 152 151 153 150 146 151 157
243 251 251 254 261 268 274 297 281 267 264 282 272 293 163 182 186 188 186 184 184 177 171 167 169 172 170 168 169 164 162 161 162 168 170 172 172 166 154 160 143 148 155 154
224 224 246 262 272 267 304 311 259 256 265 277 233 281 128 175 199 194 189 187 186 180 176 171 170 170 170 168 167 164 163 162 166 174 173 182 177 158 151 153 141 158 148 159
254 249 261 266 254 241 179 207 219 233 251 265 316 284 316 177 207 190 184 184 182 179 177 172 168 167 167 169 167 165 165 167 169 176 178 187 169 164 161 166 159 174 161 164
232 230 221 224 218 191 218 248 251 238 238 291 96 271 322 123 183 184 180 179 180 179 178 175 173 172 172 172 172 170 171 172 174 177 180 181 175 173 175 181 174 186 173 169
231 228 203 209 235 236 228 260 281 300 309 323 187 266 21 129 162 176 176 175 175 179 180 180 180 178 177 176 175 174 177 178 178 180 180 179 177 185 177 183 181 182 187 164
239 235 177 204 228 245 228 245 288 280 280 282 280 249 182 163 177 178 176 176 179 180 180 181 182 181 180 178 179 180 179 179 181 182 177 177 182 186 169 167 189 179 174 166
248 252 207 180 201 220 267 263 235 261 288 288 286 278 351 171 187 183 183 182 180 181 181 179 182 182 182 181 180 183 182 183 182 181 183 179 179 179 176 185 182 176 176 175
234 242 217 198 221 229 205 223 251 267 279 288 297 334 47 182 189 186 186 184 180 182 182 180 180 182 181 181 180 183 184 184 184 185 186 181 181 180 182 186 184 183 187 186
221 240 243 228 220 283 249 248 240 254 259 261 281 313 94 143 183 188 185 182 180 182 181 181 180 181 182 184 185 186 187 187 186 185 185 186 184 185 188 189 189 189 192 198
195 225 235 220 202 207 231 233 240 251 265 262 268 269 118 142 176 184 185 180 180 183 182 181 182 184 187 189 190 190 192 192 189 185 187 187 188 190 196 193 192 195 198 204
224 234 248 257 263 219 221 226 227 236 249 256 257 276 229 197 185 186 187 185 183 184 186 185 185 189 191 193 193 195 195 194 190 188 191 190 193 194 197 197 195 198 203 206
233 240 244 259 269 261 254 247 230 233 252 268 275 275 281 284 221 192 192 191 190 188 190 191 192 193 194 196 196 197 195 193 190 191 194 193 194 194 197 198 199 201 206 211
234 253 247 246 249 256 256 253 247 243 251 260 268 273 288 307 229 196 194 198 198 196 196 197 197 197 198 199 198 197 195 191 189 193 194 192 193 193 196 199 200 202 207 215
220 238 247 247 236 248 249 245 248 249 248 256 264 275 299 278 260 219 203 206 208 204 200 200 200 201 201 201 200 198 194 188 189 193 193 192 194 197 199 202 202 206 209 212
236 235 244 250 234 245 260 321 273 265 261 261 265 274 293 306 328 223 215 211 209 206 204 202 202 200 201 200 197 197 190 187 191 194 195 194 197 199 201 205 208 211 214 216
236 234 244 246 243 251 238 222 272 263 260 281 269 274 268 200 201 156 127 199 203 202 202 202 204 200 194 193 190 187 187 187 191 195 197 197 198 200 200 205 210 213 217 221
206 228 241 240 252 254 267 74 309 259 236 28 298 279 259 231 238 101 64 87 170 175 175 180 182 181 176 180 178 182 187 187 193 194 194 193 196 201 204 207 210 213 218 227
198 215 232 238 245 252 53 67 226 245 35 32 9 350 335 12 13 46 53 63 91 126 138 141 139 140 149 156 163 178 184 190 193 187 183 186 191 200 207 206 205 211 218 227
229 225 227 235 240 239 56 34 310 13 24 26 41 51 56 66 67 66 65 71 83 101 111 119 120 120 127 140 153 169 180 181 177 175 177 183 187 198 198 200 203 209 219 225
258 313 295 267 317 47 23 360 6 353 342 21 51 62 78 82 74 72 72 73 78 85 91 102 111 110 111 129 150 163 164 158 162 167 177 183 185 196 202 203 205 210 215 231
112 3 270 263 62 39 12 9 17 26 49 64 81 89 93 91 85 78 75 76 75 74 80 88 97 104 107 115 129 139 139 149 153 160 167 174 183 192 197 213 217 222 226 235
332 259 266 260 338 29 44 36 50 75 87 91 93 94 95 94 89 83 78 73 71 72 72 77 85 91 94 96 97 101 111 128 142 157 174 184 192 206 211 215 229 234 238 248
329 306 303 335 24 349 23 42 77 98 98 98 98 94 90 88 89 86 82 78 76 76 75 76 78 80 81 82 79 74 88 115 138 151 170 196 202 201 234 239 236 223 241 234